Weather in Phichit

Thailand     16°26′34″N   100°20′37″E
temp.,
°C
wind,
m/s
gust,
m/s
humid.,
%
clouds,
%
prec.,
mm/h
press.,
hPa
HPBL,
m
21 april, wed
wed2101:00+30se11577 0.0 100712
04:00+29s376675 0.0 1006225
07:00+28se25701 0.0 1009252
10:00+33s22525 0.0 10101161
13:00+37s223976 0.0 10072650
16:00+36ssw22369 0.1 10051071
19:00+33se36455 0.1 1005128
22:00+31ssw36517 0.0 1008163
22 april, thu
thu2201:00+30ssw24590 0.0 1007128
04:00+29se236343 0.0 100769
07:00+29se35655 0.0 1008251
10:00+34ssw22471 0.0 10091201
13:00+39sw11333 0.0 10062496
16:00+40w222637 0.0 10023334
19:00+33ese594614 0.0 1004219
22:00+31ssw37516 0.0 1007349
23 april, fri
fri2301:00+30s375834 0.0 1005361
04:00+29se366699 0.0 1005290
07:00+29sse236670 0.0 1007268
10:00+34wnw114656 0.0 10081195
13:00+39wnw22335 0.0 10042127
16:00+40sse122538 0.0 10013537
19:00+37se35316 0.0 1002100
22:00+34ssw373897 0.0 1005224
24 april, sat
sat2401:00+32s5846100 0.0 1004450
04:00+30sse3662100 0.0 1004381
07:00+30sse246399 0.0 1007540
10:00+34sse114898 0.0 10081264
13:00+39sw1136100 0.0 10051961
16:00+39ssw2231100 0.0 10022750
19:00+35e4640100 0.0 1004163
22:00+34sse374691 0.1 1006448
25 april, sun
sun2501:00+31sse365499 0.4 1006273
04:00+30sse4762100 0.0 1005410
07:00+30se2464100 0.0 1008424
10:00+34sse115176 0.0 10091094
13:00+38sw323725 0.0 10062083
16:00+40wsw443128 0.0 10022831
19:00+30ne51060100 1.3 1005275
22:00+31ene235682 0.4 100769